Tracking 30995 objects as of 7-Jul-2025
HD Live streaming from Space Station
objects crossing your sky now

STARLINK-5965

Track STARLINK-5965 now!
10-day predictions
STARLINK-5965 is classified as:


NORAD ID: 56915
Int'l Code: 2023-083AR
Perigee: 565.5 km
Apogee: 567.0 km
Inclination: 43.0 °
Period: 95.8 minutes
Semi major axis: 6937 km
RCS: Unknown
Launch date: June 12, 2023
Source: United States (US)
Launch site: AIR FORCE EASTERN TEST RANGE (AFETR)
Your satellite tracking list
Your tracking list is empty




NASA's NSSDC Master Catalog

Two Line Element Set (TLE):
1 56915U 23083AR  25187.42710607  .00000351  00000-0  41059-4 0  9994
2 56915  43.0044 327.1099 0001067 264.2003  95.8718 15.02536111114778
Source of the keplerian elements: AFSPC